Regional Weather Roundup
Issued by NWS Kansas City/Pleasant Hill, MO

Home | Current Version | Previous Version | Text Only | Print | Product List | Glossary On
Versions: 1 2 3 4 5 6 7 8 9 10 11 12 13 14 15 16 17 18 19 20 21 22 23 24 25 26 27
000
ASUS43 KEAX 201310
RWREAX

WEATHER ROUNDUP FOR EASTERN KANSAS AND NORTHWEST MISSOURI
NATIONAL WEATHER SERVICE KANSAS CITY/PLEASANT HILL MO
800 AM CDT FRI APR 20 2018

KSZ040-057-103>105-MOZ028-029-037-043-201400-
...KANSAS CITY METROPOLITAN AREA...

CITY           SKY/WX    TMP DP  RH WIND       PRES   REMARKS
K.C. INTL      CLOUDY    43  31  62 SE8       30.45R
K.C. DOWNTOWN  SUNNY     42  30  62 NE5       30.46R
LEES SUMMIT    CLOUDY    41  34  76 SE6       30.46R
OLATHE - IXD   CLOUDY    42  31  64 SE7       30.45R
OLATHE - OJC   CLOUDY    41  30  65 SE7       30.45R
LAWRENCE       SUNNY     41  34  76 E5        30.45R

$$

MOZ001>008-011>017-020>025-030>033-038>040-044>046-053-054-201400-
...NORTHERN AND CENTRAL MISSOURI...

CITY           SKY/WX    TMP DP  RH WIND       PRES   REMARKS
ST. JOSEPH     MOSUNNY   41  32  70 E3        30.46R
MOSBY            N/A     32  30  93 CALM      30.47R
WARRENSBURG    MOSUNNY   36  32  87 CALM      30.47R
WHITEMAN AFB   MOSUNNY   40  32  72 E3        30.43R
CLINTON        CLOUDY    37  32  81 E6        30.47R WCI  33
SEDALIA        CLOUDY    42  34  73 SE3       30.48R
WARSAW         NOT AVBL
CHILLICOTHE      N/A     40  30  67 CALM      30.49R
KIRKSVILLE     SUNNY     39  30  70 E5        30.50R

$$

MOZ041-047>049-056>058-063>065-088>090-097-201400-
...EASTERN AND SOUTHERN MISSOURI...

CITY           SKY/WX    TMP DP  RH WIND       PRES   REMARKS
ST. LOUIS INTL MOSUNNY   44  26  49 E7        30.50R
SPIRIT OF STL  SUNNY     39  35  86 CALM      30.49R
COLUMBIA       SUNNY     42  29  59 E7        30.48R
JEFFERSON CITY SUNNY     34  30  85 CALM      30.50R
ROLLA          SUNNY     43  30  60 E7        30.47R
OSAGE BEACH    SUNNY     38  32  79 CALM      30.48R
SPRINGFIELD    CLOUDY    43  32  65 CALM      30.43R
BRANSON        MOSUNNY   43  32  65 CALM      30.45R
JOPLIN         SUNNY     43  34  70 SE10      30.42F
WEST PLAINS    SUNNY     42  31  64 NE7       30.44R

$$

IAZ060-094-KSZ022-034>040-054-083-096-NEZ052-066-093-201400-
...KANSAS...SOUTHEAST NEBRASKA AND IOWA...

CITY           SKY/WX    TMP DP  RH WIND       PRES   REMARKS
TOPEKA         CLOUDY    42  34  73 E7        30.43R
MANHATTAN      CLOUDY    40  31  70 CALM      30.40R
EMPORIA        CLOUDY    41  32  70 SE9       30.40R
CHANUTE        SUNNY     44  32  62 SE13      30.41R
WICHITA        PTSUNNY   44  32  62 SE12      30.33S
OMAHA          PTSUNNY   38  28  67 SE7       30.44S WCI  33
LINCOLN        CLOUDY    39  30  70 CALM      30.42R
FALLS CITY     CLOUDY    37  30  75 E5        30.43S WCI  33
LAMONI         MOSUNNY   37  26  64 E6        30.47R WCI  32
DES MOINES     CLOUDY    39  25  57 SE8       30.49R WCI  33

$$





USA.gov is the U.S. government's official web portal to all federal, state and local government web resources and services.